Location: Unspecified
(0.0000°N, 0.0000°E)
Time: 08:13:56
(UTC+00:00)

XW-2C - Pass Details

Date: 24 May 2021
Orbit: 506 x 525 km, 97.5° (Epoch: 17 June)

Event Time Altitude Azimuth Distance (km) Brightness Sun altitude
Rises 05:29:32 0° 13° (NNE) 2,624 ? -6.4°
Reaches altitude 10° 05:31:38 10° 15° (NNE) 1,737 ? -5.9°
Maximum altitude 05:35:22 77° 100° (E) 531 ? -5.0°
Drops below altitude 10° 05:39:06 10° 187° (S) 1,734 ? -4.2°
Sets 05:41:11 0° 189° (S) 2,619 ? -3.7°
